Location: Unspecified
(0.0000°N, 0.0000°E)
Time: 17:03:47
(UTC+00:00)

Envisat - Pass Details

Date: 22 April 2019
Orbit: 764 x 766 km, 98.2° (Epoch: 19 May)

Event Time Altitude Azimuth Distance (km) Brightness Sun altitude
Rises 19:14:14 0° 176° (S) 3,232 6.1 -18.5°
Reaches altitude 10° 19:16:34 10° 181° (S) 2,303 5.3 -19.0°
Maximum altitude 19:21:32 55° 258° (WSW) 913 3.7 -20.3°
Drops below altitude 10° 19:26:28 10° 335° (NNW) 2,293 5.9 -21.5°
Sets 19:28:49 0° 340° (NNW) 3,216 6.7 -22.0°
